This is the latest recevied weather packets stored in our database for station/object DL5DI-H. If no packets are shown the sender has not sent any weather packets the latest 10 day(s).
| Time | Temp. | Humidity | Pressure | Rain* | Wind** | Luminosity | Snow |
|---|---|---|---|---|---|---|---|
| 1788705002 | 26.11° C | 40% | 1024.9 hPa | 0 mm | - | - | - |
| 1788704402 | 25.56° C | 40% | 1024.9 hPa | 0 mm | - | - | - |
| 1788703800 | 26.11° C | 40% | 1025 hPa | 0 mm | - | - | - |
| 1788703200 | 26.11° C | 40% | 1025.1 hPa | 0 mm | - | - | - |
| 1788702602 | 26.11° C | 41% | 1025.2 hPa | 0 mm | - | - | - |
| 1788702002 | 25.56° C | 41% | 1025.3 hPa | 0 mm | - | - | - |
| 1788701402 | 25.56° C | 42% | 1025.5 hPa | 0 mm | - | - | - |
| 1788700801 | 25.56° C | 43% | 1025.6 hPa | 0 mm | - | - | - |
| 1788700201 | 25° C | 44% | 1025.7 hPa | 0 mm | - | - | - |
| 1788699601 | 25° C | 45% | 1025.9 hPa | 0 mm | - | - | - |
| 1788699001 | 25° C | 44% | 1025.9 hPa | 0 mm | - | - | - |
| 1788698400 | 24.44° C | 46% | 1026 hPa | 0 mm | - | - | - |
| 1788697800 | 24.44° C | 47% | 1026.1 hPa | 0 mm | - | - | - |
| 1788697201 | 23.89° C | 48% | 1026.1 hPa | 0 mm | - | - | - |
| 1788696602 | 23.33° C | 51% | 1026.4 hPa | 0 mm | - | - | - |
| 1788696003 | 23.33° C | 51% | 1026.4 hPa | 0 mm | - | - | - |
| 1788695402 | 22.78° C | 52% | 1026.5 hPa | 0 mm | - | - | - |
| 1788694801 | 22.22° C | 52% | 1026.7 hPa | 0 mm | - | - | - |
| 1788694229 | 22.22° C | 54% | 1026.8 hPa | 0 mm | - | - | - |
| 1788693605 | 21.67° C | 55% | 1027 hPa | 0 mm | - | - | - |
| 1788693001 | 21.67° C | 57% | 1027.1 hPa | 0 mm | - | - | - |
| 1788692402 | 21.11° C | 57% | 1027.1 hPa | 0 mm | - | - | - |
| 1788691802 | 20.56° C | 60% | 1027.3 hPa | 0 mm | - | - | - |
| 1788691200 | 20° C | 64% | 1027.4 hPa | 0 mm | - | - | - |
| 1788690600 | 19.44° C | 67% | 1027.6 hPa | 0 mm | - | - | - |
* Rain latest hour (hover to see other rain measurements)
** Current wind speed in m/s (hover to see current wind gust speed)